Hourly Weather Dziankowo

Today, 17 April, Saturday

Time Temperature Precipitation Wind Pressure Humidity
00:00 +4°C° 0 mm 2 mps 751 mmHg 96%
01:00 +4°C° 0 mm 2 mps 751 mmHg 96%
02:00 +4°C° 0.1 mm 2 mps 751 mmHg 96%
03:00 +3°C° 0.1 mm 3 mps 751 mmHg 96%
04:00 +3°C° 0.1 mm 3 mps 751 mmHg 96%
05:00 +4°C° 0.1 mm 3 mps 751 mmHg 96%
06:00 +5°C° 0.1 mm 2 mps 751 mmHg 96%
07:00 +6°C° 0.1 mm 2 mps 751 mmHg 96%
08:00 +7°C° 0.1 mm 3 mps 751 mmHg 92%
09:00 +8°C° 0.1 mm 3 mps 751 mmHg 88%
10:00 +9°C° 0.1 mm 3 mps 752 mmHg 84%
11:00 +10°C° 0.2 mm 3 mps 752 mmHg 78%
12:00 +11°C° 0.2 mm 3 mps 752 mmHg 73%
13:00 +12°C° 0.2 mm 3 mps 752 mmHg 67%
14:00 +12°C° 0.1 mm 3 mps 752 mmHg 66%
15:00 +12°C° 0.1 mm 3 mps 752 mmHg 66%
16:00 +13°C° 0.1 mm 2 mps 751 mmHg 65%
17:00 +12°C° 0.1 mm 2 mps 752 mmHg 71%
18:00 +11°C° 0.1 mm 1 mps 752 mmHg 77%
19:00 +9°C° 0.1 mm 1 mps 752 mmHg 83%
20:00 +9°C° 0 mm 1 mps 752 mmHg 84%
21:00 +8°C° 0 mm 1 mps 752 mmHg 86%
22:00 +8°C° 0 mm 1 mps 752 mmHg 87%
23:00 +8°C° 0 mm 1 mps 752 mmHg 88%

Tomorrow, 18 April, Sunday

Time Temperature Precipitation Wind Pressure Humidity
00:00 +8°C° 0 mm 1 mps 752 mmHg 90%
01:00 +7°C° 0 mm 1 mps 752 mmHg 91%
02:00 +6°C° 0 mm 2 mps 752 mmHg 92%
03:00 +6°C° 0 mm 2 mps 752 mmHg 93%
04:00 +5°C° 0 mm 2 mps 752 mmHg 95%
05:00 +6°C° 0 mm 2 mps 752 mmHg 92%
06:00 +7°C° 0 mm 2 mps 752 mmHg 90%
07:00 +7°C° 0 mm 2 mps 752 mmHg 88%
08:00 +8°C° 0 mm 2 mps 752 mmHg 83%
09:00 +9°C° 0 mm 2 mps 752 mmHg 78%
10:00 +12°C° 0 mm 2 mps 752 mmHg 73%
11:00 +12°C° 0.1 mm 2 mps 752 mmHg 70%
12:00 +12°C° 0.1 mm 3 mps 752 mmHg 67%
13:00 +12°C° 0.1 mm 3 mps 752 mmHg 64%
14:00 +12°C° 0.1 mm 3 mps 752 mmHg 69%
15:00 +11°C° 0.1 mm 3 mps 752 mmHg 74%
16:00 +11°C° 0.1 mm 3 mps 752 mmHg 79%
17:00 +10°C° 0 mm 3 mps 752 mmHg 83%
18:00 +9°C° 0 mm 3 mps 752 mmHg 87%
19:00 +8°C° 0 mm 2 mps 753 mmHg 91%
20:00 +8°C° 0.1 mm 2 mps 753 mmHg 92%
21:00 +8°C° 0.1 mm 2 mps 753 mmHg 93%
22:00 +8°C° 0.1 mm 2 mps 753 mmHg 94%
23:00 +8°C° 0 mm 2 mps 753 mmHg 93%

Day after tomorrow, 19 April, Monday

Time Temperature Precipitation Wind Pressure Humidity
00:00 +8°C° 0 mm 3 mps 753 mmHg 93%
01:00 +8°C° 0 mm 3 mps 752 mmHg 92%
02:00 +7°C° 0 mm 3 mps 752 mmHg 92%
03:00 +7°C° 0 mm 3 mps 752 mmHg 92%
04:00 +5°C° 0 mm 3 mps 752 mmHg 92%
05:00 +7°C° 0 mm 3 mps 752 mmHg 89%
06:00 +6°C° 0 mm 4 mps 752 mmHg 86%
07:00 +7°C° 0 mm 4 mps 753 mmHg 83%
08:00 +8°C° 0 mm 5 mps 753 mmHg 75%
09:00 +10°C° 0 mm 6 mps 752 mmHg 68%
10:00 +11°C° 0 mm 6 mps 752 mmHg 60%
11:00 +11°C° 0 mm 6 mps 752 mmHg 58%
12:00 +13°C° 0 mm 5 mps 752 mmHg 55%
13:00 +13°C° 0 mm 5 mps 752 mmHg 53%
14:00 +13°C° 0 mm 5 mps 751 mmHg 55%
15:00 +12°C° 0 mm 4 mps 751 mmHg 57%
16:00 +12°C° 0 mm 4 mps 751 mmHg 59%
17:00 +11°C° 0 mm 3 mps 751 mmHg 66%
18:00 +10°C° 0 mm 3 mps 751 mmHg 72%
19:00 +8°C° 0 mm 2 mps 751 mmHg 78%
20:00 +7°C° 0 mm 2 mps 751 mmHg 81%
21:00 +7°C° 0 mm 2 mps 751 mmHg 84%
22:00 +5°C° 0 mm 3 mps 751 mmHg 88%
23:00 +6°C° 0 mm 2 mps 751 mmHg 87%

20 April, Tuesday

Time Temperature Precipitation Wind Pressure Humidity
00:00 +6°C° 0 mm 2 mps 750 mmHg 87%
01:00 +6°C° 0 mm 2 mps 750 mmHg 86%
02:00 +6°C° 0 mm 2 mps 750 mmHg 87%
03:00 +6°C° 0 mm 2 mps 750 mmHg 88%
04:00 +6°C° 0 mm 2 mps 750 mmHg 89%
05:00 +7°C° 0.1 mm 2 mps 750 mmHg 86%
06:00 +7°C° 0.1 mm 2 mps 750 mmHg 84%
07:00 +7°C° 0.1 mm 2 mps 750 mmHg 81%
08:00 +9°C° 0 mm 2 mps 750 mmHg 73%
09:00 +10°C° 0 mm 3 mps 750 mmHg 65%
10:00 +11°C° 0 mm 3 mps 749 mmHg 56%
11:00 +11°C° 0.1 mm 3 mps 749 mmHg 56%
12:00 +11°C° 0.1 mm 3 mps 749 mmHg 56%
13:00 +12°C° 0.1 mm 3 mps 749 mmHg 57%
14:00 +12°C° 0.1 mm 3 mps 748 mmHg 57%
15:00 +12°C° 0.1 mm 3 mps 748 mmHg 57%
16:00 +12°C° 0.1 mm 3 mps 748 mmHg 57%
17:00 +11°C° 0.1 mm 3 mps 748 mmHg 63%
18:00 +9°C° 0.1 mm 3 mps 748 mmHg 70%
19:00 +8°C° 0.1 mm 3 mps 748 mmHg 76%
20:00 +7°C° 0 mm 2 mps 748 mmHg 80%
21:00 +6°C° 0 mm 2 mps 748 mmHg 85%
22:00 +6°C° 0 mm 2 mps 748 mmHg 90%
23:00 +5°C° 0 mm 2 mps 748 mmHg 91%

21 April, Wednesday

Time Temperature Precipitation Wind Pressure Humidity
00:00 +5°C° 0 mm 2 mps 748 mmHg 92%
01:00 +4°C° 0 mm 2 mps 748 mmHg 94%
02:00 +4°C° 0 mm 2 mps 748 mmHg 94%
03:00 +4°C° 0 mm 2 mps 748 mmHg 95%
04:00 +3°C° 0 mm 2 mps 748 mmHg 95%
05:00 +5°C° 0 mm 2 mps 748 mmHg 90%
06:00 +6°C° 0 mm 2 mps 748 mmHg 85%
07:00 +7°C° 0 mm 2 mps 748 mmHg 80%
08:00 +8°C° 0 mm 3 mps 748 mmHg 72%
09:00 +10°C° 0 mm 3 mps 748 mmHg 65%
10:00 +11°C° 0 mm 3 mps 748 mmHg 57%
11:00 +11°C° 0.1 mm 4 mps 748 mmHg 55%
12:00 +12°C° 0.1 mm 4 mps 748 mmHg 53%
13:00 +12°C° 0.1 mm 5 mps 748 mmHg 51%
14:00 +12°C° 0 mm 4 mps 748 mmHg 52%
15:00 +12°C° 0 mm 4 mps 748 mmHg 54%
16:00 +12°C° 0 mm 4 mps 748 mmHg 55%
17:00 +10°C° 0 mm 4 mps 749 mmHg 62%
18:00 +8°C° 0 mm 4 mps 749 mmHg 69%
19:00 +7°C° 0 mm 4 mps 749 mmHg 76%
20:00 +7°C° 0 mm 3 mps 749 mmHg 77%
21:00 +5°C° 0 mm 3 mps 750 mmHg 78%
22:00 +6°C° 0 mm 2 mps 750 mmHg 80%
23:00 +4°C° 0 mm 3 mps 750 mmHg 81%

22 April, Thursday

Time Temperature Precipitation Wind Pressure Humidity
00:00 +4°C° 0 mm 3 mps 750 mmHg 83%
01:00 +3°C° 0 mm 3 mps 750 mmHg 85%
02:00 +3°C° 0 mm 3 mps 750 mmHg 81%
03:00 +3°C° 0 mm 3 mps 750 mmHg 76%
04:00 +3°C° 0 mm 4 mps 750 mmHg 72%
05:00 +4°C° 0 mm 4 mps 750 mmHg 72%
06:00 +3°C° 0 mm 5 mps 750 mmHg 71%
07:00 +3°C° 0 mm 5 mps 750 mmHg 71%
08:00 +4°C° 0 mm 6 mps 751 mmHg 64%
09:00 +5°C° 0 mm 6 mps 751 mmHg 57%
10:00 +6°C° 0 mm 7 mps 751 mmHg 49%
11:00 +6°C° 0 mm 7 mps 751 mmHg 46%
12:00 +8°C° 0 mm 7 mps 751 mmHg 43%
13:00 +7°C° 0 mm 8 mps 751 mmHg 40%
14:00 +8°C° 0 mm 7 mps 751 mmHg 43%
15:00 +8°C° 0 mm 7 mps 752 mmHg 46%
16:00 +8°C° 0 mm 7 mps 752 mmHg 48%
17:00 +5°C° 0 mm 6 mps 752 mmHg 55%
18:00 +5°C° 0 mm 5 mps 753 mmHg 61%
19:00 +4°C° 0 mm 3 mps 753 mmHg 67%
20:00 +3°C° 0 mm 4 mps 753 mmHg 70%
21:00 +3°C° 0 mm 4 mps 754 mmHg 73%
22:00 +1°C° 0 mm 4 mps 754 mmHg 76%
23:00 +1°C° 0 mm 4 mps 754 mmHg 81%
Show more

We Need Your Consent

Meteoprog and our Service Providers may store and access personal data such as cookies, device identifiers or other similar technologies on your device and process such data to personalise content and ads, as well as provide social media features and to analyse the traffic.

  • Store and/or access information on your device

    Cookies, device identifiers or other information can be stored or accessed on your device for the purposes indicated above.

  • Personalised ads and content, ad and content measurement, audience insights, and products development

    Ads and content can be personalised based on a profile. More data can be added to better personalise ads and content. Ad and content performance can be measured. Insights about the audience who saw the ads and content can be derived. Such data can be used to develop or improve user’s experience, systems and software.

By clicking ‘I Agree’ you will allow the use of indicated cookies, device identifiers, web beacons or other similar technologies. Your settings can be changed in the browser on your device.

For certain purposes, legitimate interests may be relied on, rather than consent. You can read more about this in our Privacy and Cookie Policy.